292  
ASUS43 KLMK 201810  
RWRKY  
KENTUCKY REGIONAL WEATHER ROUNDUP  
NATIONAL WEATHER SERVICE LOUISVILLE KY  
200 PM EDT SAT APR 20 2019  
 
NOTE "FAIR" INDICATES FEW OR NO CLOUDS BELOW 12,000 FEET  
WITH NO SIGNIFICANT WEATHER AND/OR S TO VISIBILITY
.  
 
KYZ001>023-026-027-061>063-070>075-201900-  
WESTERN AND SOUTH CENTRAL KENTUCKY  
 
CITY SKY/WX TMP DP RH WIND PRES REMARKS
 
PADUCAH FAIR 62 28 27 N15G28 29.82S  
HENDERSON CLOUDY 53 40 61 N10 29.78R  
OWENSBORO CLOUDY 48 40 73 N9 29.77R  
HOPKINSVILLE NOT AVBL  
BOWLING GREEN LGT RAIN 46 41 82 NW9G18 29.77R  
GLASGOW RAIN 43 42 97 W13 29.73R  

 
 
KYZ024-025-028>034-038-045-046-053-201900-  
NORTH CENTRAL KENTUCKY  
 
CITY SKY/WX TMP DP RH WIND PRES REMARKS
 
LOUISVILLE/SDF LGT RAIN 45 40 82 N15 29.72R  
LOUISVILLE/LOU LGT RAIN 43 38 82 VRB7 29.71R  
FORT KNOX NOT AVBL  

 
 
KYZ035>037-039>044-047>052-055>060-089>105-201900-  
NORTHEAST KENTUCKY  
 
CITY SKY/WX TMP DP RH WIND PRES REMARKS
 
LEXINGTON CLOUDY 42 36 79 SW9 29.68R  
COVINGTON LGT RAIN 46 43 89 NW13 29.64R FOG  
FRANKFORT CLOUDY 43 39 86 W6 29.67R  

 
 
KYZ054-064>069-076>088-106>120-201900-  
SOUTHEAST KENTUCKY  
 
CITY SKY/WX TMP DP RH WIND PRES REMARKS
 
JACKSON CLOUDY 47 40 76 VRB5 29.66R  
LONDON LGT RAIN 45 42 89 W10 29.68R  
SOMERSET CLOUDY 43 36 75 SW9 29.73R  
MIDDLESBORO LGT RAIN 46 43 91 SW5 29.69R  
MONTICELLO CLOUDY 44 40 85 W16 29.74R  

 
 
 
 
CLICK HERE TO GO TO PREVIOUS BULLETINS.

The Nexlab KY Page Main Text Page